Regional Weather Roundup
Issued by NWS

Home | Current Version | Previous Version | Text Only | Print | Product List | Glossary On
Versions: 1 2 3 4 5 6 7 8 9 10 11 12 13 14 15 16 17 18 19 20 21 22 23 24 25 26 27 28 29 30 31 32 33 34 35 36 37 38 39 40 41 42 43 44 45 46 47 48 49 50
626
ASUS43 KMPX 241301
RWRMN
WEATHER ROUNDUP FOR MINNESOTA
NATIONAL WEATHER SERVICE TWIN CITIES/CHANHASSEN MN
800 AM CDT MON JUL 24 2017


NOTE: "FAIR" INDICATES FEW OR NO CLOUDS BELOW 12,000 FEET WITH NO
SIGNIFICANT WEATHER AND/OR OBSTRUCTIONS TO VISIBILITY. N/A MEANS
CURRENT SKY AND/OR WEATHER CONDITIONS ARE NOT AVAILABLE.

MNZ060>063-068>070-241400-
   Twin Cities Metro

CITY           SKY/WX    TMP DP  RH WIND       PRES   REMARKS
TWIN CITIES    SUNNY     64  57  78 E6        30.07R
ST PAUL        SUNNY     64  59  83 SE5       30.08R
CRYSTAL        SUNNY     63  56  78 CALM      30.07R
BLAINE         SUNNY     63  61  94 E5        30.07R
LAKEVILLE      SUNNY     61  61 100 CALM      30.08R
EDEN PRAIRIE   SUNNY     64  58  80 E5        30.07R
SOUTH ST PAUL  SUNNY     63  56  80 E3        30.07R
LAKE ELMO      FAIR      61  57  88 E3        30.09R
$$
MNZ001>005-007-008-013>017-022>024-027-028-241400-
   Northwest Minnesota

CITY           SKY/WX    TMP DP  RH WIND       PRES   REMARKS
BEMIDJI        SUNNY     62  56  82 S7        30.05R
HALLOCK        SUNNY     64  63  94 S9        29.97R
ROSEAU         SUNNY     63  57  82 S8        30.01R
WARROAD        SUNNY     63  61  94 S6        30.02R
CROOKSTON      SUNNY     64  61  88 S9        30.00S
FOSSTON        SUNNY     64  57  77 S8        30.04R
DETROIT LAKES  SUNNY     64  59  82 S8        30.05R
MOORHEAD       SUNNY     64  61  88 S14       30.01R
PARK RAPIDS    SUNNY     61  58  90 S8        30.06R
MAHNOMEN       FAIR      64  60  87 S6        30.03R
$$
MNZ006-009>011-018-025>026-241400-
   North Central Minnesota

CITY           SKY/WX    TMP DP  RH WIND       PRES   REMARKS
BAUDETTE       SUNNY     63  61  93 S7        30.03R
FLAG ISLAND    SUNNY     68  61  77 S5        30.01R HAZE
INTL FALLS     SUNNY     62  57  83 SW6       30.06R
WASKISH        SUNNY     63  61  94 CALM      30.05R
BIG FORK       SUNNY     59  57  94 CALM      30.06S
LONGVILLE      SUNNY     57  57 100 SE3       30.06S
GRAND RAPIDS   SUNNY     57  54  89 S6        30.09S
CRANE LAKE     SUNNY     57  54  88 CALM      30.09S
ORR            SUNNY     57  52  82 CALM      30.06S
COOK           SUNNY     57  54  88 CALM      30.08S
WALKER         FAIR      62  57  86 S5        30.06R
$$
MNZ012-019>021-037-241400-
   Northeast Minnesota

CITY           SKY/WX    TMP DP  RH WIND       PRES   REMARKS
DULUTH         FOG       55  55 100 S5        30.10R VSB 1/8
ELY            SUNNY     57  54  88 CALM      30.09S
HIBBING        MOSUNNY   52  52 100 CALM      30.09R
EVELETH        SUNNY     55  53  92 CALM      30.10S
DULUTH HARBOR  CLOUDY    57  55  94 CALM      30.11R
TWO HARBORS    SUNNY     57  52  82 CALM      30.09R
GRAND MARAIS     N/A     55  54  96 SW7       30.09S
G MARAIS ARPRT SUNNY     61  50  67 CALM      30.12R
$$
MNZ029>031-032-039>041-046>048-054>057-064-241400-
   West Central Minnesota

CITY           SKY/WX    TMP DP  RH WIND       PRES   REMARKS
FERGUS FALLS   SUNNY     64  63  94 S12       30.04R
WHEATON        CLOUDY    63  59  88 SE10      30.04R
MORRIS         SUNNY     64  59  82 S8        30.04R
ALEXANDRIA     SUNNY     63  59  87 S8        30.08S
ELBOW LAKE     FAIR      62  60  93 SE10      30.06R
WADENA         SUNNY     61  59  94 CALM      30.05F
GLENWOOD       SUNNY     61  59  94 SE5       30.07S
BENSON         SUNNY     63  57  82 S7        30.06S
ORTONVILLE     MOSUNNY   63  59  88 SE7       30.03S
MADISON        SUNNY     64  64 100 S6        30.04S
WILLMAR        FAIR      63  61  94 SE7       30.08S
$$
MNZ033>034-036-042>043-049>051-058-059-241400-
   Central Minnesota

CITY           SKY/WX    TMP DP  RH WIND       PRES   REMARKS
ST CLOUD       FOG       57  57 100 CALM      30.09R VSB 1/2
SAUK CENTRE    FOG       57  57 100 SE5       30.06F VSB<1/4
PAYNESVILLE    SUNNY     62  60  93 SE6       30.08S
AITKIN         CLOUDY    55  54  94 SE3       30.07S FOG
PINE RIVER     SUNNY     59  59 100 S3        30.10R
BRAINERD       SUNNY     58  57  97 S5        30.08R
STAPLES        SUNNY     57  57 100 S6        30.07S
LONG PRAIRIE   FAIR      59  59 100 E5        30.07F
LITTLE FALLS   CLOUDY    55  54  94 S3        30.09R
LITCHFIELD     SUNNY     64  61  88 SE7       30.08R
BUFFALO        SUNNY     62  57  84 E6        30.09R
MAPLE LAKE     SUNNY     62  62  99 SE3       30.09R
HUTCHINSON     SUNNY     61  59  94 SE3       30.09R
$$
MNZ037-044-045-052-053-241400-
   East Central Minnesota

CITY           SKY/WX    TMP DP  RH WIND       PRES   REMARKS
PRINCETON      PTSUNNY   59  57  94 E3        30.09R
MORA           FOG       54  52  94 CALM      30.11R VSB 1/2
CAMBRIDGE      SUNNY     63  57  82 CALM      30.07R
RUSH CITY      FOG       55  54  97 CALM      30.09R VSB 1/2
MOOSE LAKE     FOG       55  54  94 CALM      30.08S VSB 3/4
HINCKLEY       FOG       52  52 100 CALM      30.10R VSB<1/4
CLOQUET        FOG       55  54  94 SE3       30.10R VSB<1/4
MCGREGOR       CLOUDY    54  52  94 SE3       30.09S VSB 1/4
$$
MNZ071>073-080-081-089-090-097-098-241400-
   Southwest Minnesota

CITY           SKY/WX    TMP DP  RH WIND       PRES   REMARKS
MONTEVIDEO     SUNNY     64  63  94 S6        30.05S
GRANITE FALLS  SUNNY     64  60  87 SE7       30.07S
CANBY          SUNNY     62  60  92 CALM      30.05S
MARSHALL       SUNNY     64  61  90 S9        30.05F
REDWOOD FALLS  SUNNY     62  59  90 SE5       30.07R
OLIVIA         SUNNY     61  57  88 SE6       30.06S
PIPESTONE      SUNNY     64  61  88 S8        30.05S
WINDOM         SUNNY     63  59  88 CALM      30.08S
WORTHINGTON    SUNNY     63  60  90 E6        30.06F
JACKSON        SUNNY     63  59  88 CALM      30.08S
SLAYTON        HVY RAIN  58  57  97 SE3       30.07S
$$
MNZ065>067-074>077-082>085-091>093-241400-
   South Central Minnesota

CITY           SKY/WX    TMP DP  RH WIND       PRES   REMARKS
MANKATO        SUNNY     63  59  87 E3        30.08R
NEW ULM        SUNNY     63  57  82 E5        30.07S
ST JAMES       SUNNY     63  59  88 E3        30.08S
FAIRMONT       SUNNY     61  59  93 CALM      30.08S
GLENCOE        SUNNY     63  61  94 E5        30.08R
FARIBAULT      SUNNY     61  57  88 CALM      30.08R
OWATONNA       SUNNY     63  59  88 E3        30.08R
WASECA         SUNNY     63  59  88 E5        30.09R
ALBERT LEA     SUNNY     61  57  88 NE3       30.07S
$$
MNZ078>079-086>088-094>096-241400-
   Southeast Minnesota

CITY           SKY/WX    TMP DP  RH WIND       PRES   REMARKS
ROCHESTER      MOSUNNY   62  59  90 E8        30.07S
RED WING       SUNNY     63  55  77 E6        30.06S
STANTON        SUNNY     60  59  96 CALM      30.07R
DODGE CENTER   SUNNY     63  57  82 E3        30.07R
WINONA         SUNNY     63  55  77 E6        30.07S
AUSTIN         SUNNY     63  57  82 CALM      30.07R
PRESTON        SUNNY     60  56  87 E8        30.08R
$$
ABBREVIATIONS USED IN REMARKS
   TC - TEMPERATURES IN CELSIUS
  WCI - WIND CHILL INDEX
   HX - HEAT INDEX
  VSB - VISIBILITY
$$




USA.gov is the U.S. government's official web portal to all federal, state and local government web resources and services.